Change the Weather History Date:

Friday, July 19, 2013

  Actual Average (KBGD) Record (KBGD)
Temperature  
Mean Temperature 76 °F 82 °F  
Max Temperature 89 °F 95 °F 104 °F (2003)
Min Temperature 64 °F 70 °F 59 °F (1960)
Degree Days  
Heating Degree Days 0 0  
Month to date heating degree days 0  
Since 1 June heating degree days 3  
Since 1 July heating degree days 0  
Cooling Degree Days 11 17  
Month to date cooling degree days 315  
Year to date cooling degree days 870  
Since 1 June cooling degree days 673  
Growing Degree Days 26 (Base 50)    
Moisture  
Dew Point 62 °F    
Average Humidity 63    
Maximum Humidity 93    
Minimum Humidity 37    
Precipitation  
Precipitation 0.00 in 0.05 in 2.19 in (1953)
Month to date precipitation 1.50  
Year to date precipitation 11.72  
Snow  
Snow 0.00 in - T in (1950)
Month to date snowfall  
Since 1 June snowfall  
Since 1 July snowfall  
Snow Depth -    
Sea Level Pressure  
Sea Level Pressure 30.08 in    
Wind  
Wind Speed 15 mph (SSW)    
Max Wind Speed 23 mph    
Max Gust Speed 29 mph    
Visibility 10 miles    
Events      
T = Trace of Precipitation, MM = Missing Value Source: NWS Daily Summary

Daily Weather History Graph

Daily Weather History Graph

Search for Another Location

Airport or City:

Trip Planner

Search our weather history database for the weather conditions in past years. The results will help you decide how hot, cold, wet, or windy it might be!

Date:

Astronomy

Jul. 19, 2013 Rise Set
Actual Time 6:46 AM CDT 9:02 PM CDT
Civil Twilight 6:17 AM CDT 9:31 PM CDT
Nautical Twilight 5:41 AM CDT 10:06 PM CDT
Astronomical Twilight 5:02 AM CDT 10:45 PM CDT
Moon 6:07 PM CDT (7/19) 3:28 AM CDT (7/19)
Length of Visible Light 15h 14m
Length of Day
14h 16m
Waxing Gibbous, 87% of the Moon is Illuminated
Jul 19
Waxing Gibbous
Jul 22
Full
Jul 29
Last Quarter
Aug 6
New
Aug 14
First Quarter

Hourly Weather History & Observations

Time (CDT) Temp. Heat Index Dew Point Humidity Pressure Visibility Wind Dir Wind Speed Gust Speed Precip Events Conditions
12:15 AM 69.4 °F - 63.1 °F 80% 30.15 in 10.0 mi South 11.5 mph - N/A   Clear
12:35 AM 69.3 °F - 63.1 °F 81% 30.15 in 10.0 mi South 13.8 mph - N/A   Clear
12:55 AM 69.4 °F - 63.0 °F 80% 30.15 in 10.0 mi South 13.8 mph - N/A   Clear
1:15 AM 68.9 °F - 62.8 °F 81% 30.15 in 10.0 mi South 12.7 mph - N/A   Clear
1:35 AM 68.5 °F - 62.6 °F 81% 30.15 in 10.0 mi South 12.7 mph - N/A   Clear
1:55 AM 68.0 °F - 62.6 °F 83% 30.14 in 10.0 mi South 13.8 mph - N/A   Clear
2:15 AM 67.5 °F - 62.8 °F 85% 30.14 in 10.0 mi South 13.8 mph - N/A   Clear
2:35 AM 67.1 °F - 63.0 °F 87% 30.15 in 10.0 mi South 13.8 mph - N/A   Clear
2:55 AM 67.1 °F - 63.0 °F 87% 30.15 in 10.0 mi South 12.7 mph - N/A   Clear
3:15 AM 66.7 °F - 63.0 °F 88% 30.15 in 10.0 mi South 11.5 mph - N/A   Clear
3:35 AM 66.4 °F - 63.0 °F 89% 30.15 in 10.0 mi South 12.7 mph - N/A   Clear
3:55 AM 66.0 °F - 63.0 °F 90% 30.14 in 10.0 mi South 10.4 mph - N/A   Clear
4:15 AM 65.8 °F - 63.0 °F 90% 30.13 in 10.0 mi South 12.7 mph - N/A   Clear
4:35 AM 65.7 °F - 62.8 °F 90% 30.12 in 10.0 mi SSW 12.7 mph - N/A   Clear
4:55 AM 65.3 °F - 62.6 °F 91% 30.12 in 10.0 mi SSW 11.5 mph - N/A   Clear
5:15 AM 65.3 °F - 62.4 °F 90% 30.12 in 10.0 mi SSW 11.5 mph - N/A   Clear
5:35 AM 65.3 °F - 62.4 °F 90% 30.13 in 10.0 mi SSW 11.5 mph - N/A   Clear
5:55 AM 64.9 °F - 62.2 °F 91% 30.12 in 10.0 mi SSW 11.5 mph - N/A   Clear
6:15 AM 64.6 °F - 62.2 °F 92% 30.12 in 10.0 mi SSW 11.5 mph - N/A   Clear
6:35 AM 64.6 °F - 62.4 °F 93% 30.13 in 10.0 mi SSW 10.4 mph - N/A   Clear
6:55 AM 64.4 °F - 62.4 °F 93% 30.14 in 10.0 mi SSW 10.4 mph - N/A   Clear
7:15 AM 64.6 °F - 62.6 °F 93% 30.14 in 10.0 mi SSW 10.4 mph - N/A   Clear
7:35 AM 65.8 °F - 63.0 °F 90% 30.14 in 10.0 mi SSW 12.7 mph - N/A   Clear
7:55 AM 67.3 °F - 63.1 °F 87% 30.13 in 10.0 mi SSW 13.8 mph - N/A   Clear
8:15 AM 68.9 °F - 63.3 °F 82% 30.13 in 10.0 mi SSW 15.0 mph - N/A   Clear
8:35 AM 69.8 °F - 63.5 °F 80% 30.13 in 10.0 mi SW 17.3 mph 23.0 mph N/A   Clear
8:55 AM 71.1 °F - 63.5 °F 77% 30.13 in 10.0 mi SW 17.3 mph - N/A   Clear
9:15 AM 72.0 °F - 63.5 °F 75% 30.12 in 10.0 mi SW 19.6 mph 24.2 mph N/A   Clear
9:35 AM 73.4 °F - 63.5 °F 71% 30.14 in 10.0 mi SW 23.0 mph 27.6 mph N/A   Clear
9:55 AM 75.0 °F - 63.3 °F 67% 30.13 in 10.0 mi SW 20.7 mph 25.3 mph N/A   Clear
10:15 AM 76.3 °F - 63.0 °F 63% 30.12 in 10.0 mi SW 21.9 mph 25.3 mph N/A   Clear
10:35 AM 77.0 °F - 62.8 °F 61% 30.12 in 10.0 mi SW 21.9 mph 28.8 mph N/A   Clear
10:55 AM 77.4 °F - 62.8 °F 61% 30.12 in 10.0 mi SW 21.9 mph 27.6 mph N/A   Clear
11:15 AM 79.0 °F - 61.7 °F 55% 30.11 in 10.0 mi SW 19.6 mph 24.2 mph N/A   Clear
11:35 AM 80.6 °F 81.7 °F 62.2 °F 53% 30.11 in 10.0 mi SW 16.1 mph 24.2 mph N/A   Clear
11:55 AM 80.8 °F 81.9 °F 62.2 °F 53% 30.11 in 10.0 mi SW 19.6 mph 25.3 mph N/A   Scattered Clouds
12:15 PM 81.9 °F 82.9 °F 62.6 °F 52% 30.11 in 10.0 mi SW 16.1 mph 23.0 mph N/A   Scattered Clouds
12:35 PM 82.0 °F 82.8 °F 61.5 °F 50% 30.11 in 10.0 mi WSW 18.4 mph 24.2 mph N/A   Mostly Cloudy
12:55 PM 82.9 °F 83.5 °F 61.2 °F 48% 30.11 in 10.0 mi SW 16.1 mph 21.9 mph N/A   Scattered Clouds
1:15 PM 82.9 °F 83.3 °F 60.8 °F 47% 30.10 in 10.0 mi SW 15.0 mph 23.0 mph N/A   Scattered Clouds
1:35 PM 85.3 °F 85.4 °F 60.8 °F 44% 30.10 in 10.0 mi SW 13.8 mph 24.2 mph N/A   Scattered Clouds
1:55 PM 85.8 °F 85.7 °F 60.1 °F 42% 30.09 in 10.0 mi SW 13.8 mph 26.5 mph N/A   Clear
2:15 PM 86.0 °F 85.7 °F 60.1 °F 41% 30.07 in 10.0 mi SSW 17.3 mph 23.0 mph N/A   Clear
2:35 PM 87.3 °F 87.0 °F 60.1 °F 40% 30.07 in 10.0 mi SSW 16.1 mph 23.0 mph N/A   Clear
2:55 PM 88.2 °F 87.8 °F 60.1 °F 39% 30.07 in 10.0 mi SSW 18.4 mph 24.2 mph N/A   Scattered Clouds
3:15 PM 88.2 °F 87.6 °F 59.4 °F 38% 30.06 in 10.0 mi SW 17.3 mph 25.3 mph N/A   Scattered Clouds
3:35 PM 88.7 °F 88.0 °F 59.5 °F 37% 30.05 in 10.0 mi South 17.3 mph 23.0 mph N/A   Clear
3:55 PM 88.0 °F 87.6 °F 59.9 °F 39% 30.04 in 10.0 mi SSW 19.6 mph 26.5 mph N/A   Scattered Clouds
4:15 PM 88.5 °F 88.1 °F 59.5 °F 38% 30.03 in 10.0 mi SW 17.3 mph 27.6 mph N/A   Scattered Clouds
4:35 PM 88.7 °F 88.3 °F 59.7 °F 38% 30.02 in 10.0 mi SSW 20.7 mph - N/A   Clear
4:55 PM 88.7 °F 88.3 °F 59.7 °F 38% 30.01 in 10.0 mi SSW 17.3 mph 23.0 mph N/A   Scattered Clouds
5:15 PM 87.6 °F 86.9 °F 59.4 °F 38% 30.00 in 10.0 mi SSW 16.1 mph 24.2 mph N/A   Scattered Clouds
5:35 PM 88.5 °F 87.8 °F 59.4 °F 37% 30.00 in 10.0 mi SSW 19.6 mph 24.2 mph N/A   Scattered Clouds
5:55 PM 88.0 °F 87.1 °F 59.0 °F 37% 30.00 in 10.0 mi SSW 19.6 mph 24.2 mph N/A   Scattered Clouds
6:15 PM 87.3 °F 86.5 °F 59.0 °F 38% 29.98 in 10.0 mi SSW 18.4 mph - N/A   Clear
6:35 PM 88.0 °F 87.4 °F 59.4 °F 38% 29.98 in 10.0 mi South 17.3 mph 26.5 mph N/A   Clear
6:55 PM 87.1 °F 86.3 °F 58.8 °F 38% 29.98 in 10.0 mi SSW 17.3 mph 21.9 mph N/A   Clear
7:15 PM 86.7 °F 86.1 °F 59.2 °F 39% 29.98 in 10.0 mi South 16.1 mph 23.0 mph N/A   Clear
7:35 PM 85.6 °F 85.2 °F 59.7 °F 41% 29.98 in 10.0 mi South 20.7 mph - N/A   Clear
7:55 PM 85.1 °F 84.8 °F 59.7 °F 42% 29.99 in 10.0 mi South 18.4 mph 21.9 mph N/A   Clear
8:15 PM 83.8 °F 83.8 °F 59.9 °F 44% 30.00 in 10.0 mi South 15.0 mph - N/A   Clear
8:35 PM 82.6 °F 82.8 °F 59.7 °F 46% 30.00 in 10.0 mi South 16.1 mph - N/A   Clear
8:55 PM 80.8 °F 81.3 °F 59.5 °F 48% 30.00 in 10.0 mi South 13.8 mph - N/A   Clear
9:15 PM 79.7 °F - 59.9 °F 51% 30.00 in 10.0 mi South 15.0 mph - N/A   Clear
9:35 PM 78.8 °F - 60.8 °F 54% 30.01 in 10.0 mi South 16.1 mph - N/A   Clear
9:55 PM 77.5 °F - 60.8 °F 56% 30.01 in 10.0 mi South 15.0 mph - N/A   Clear
10:15 PM 77.2 °F - 60.8 °F 57% 30.02 in 10.0 mi South 12.7 mph - N/A   Clear
10:35 PM 77.0 °F - 61.2 °F 58% 30.04 in 10.0 mi South 15.0 mph - N/A   Clear
10:55 PM 76.6 °F - 61.3 °F 59% 30.06 in 10.0 mi South 16.1 mph 19.6 mph N/A   Clear
11:15 PM 75.6 °F - 61.2 °F 61% 30.07 in 10.0 mi South 15.0 mph - N/A   Clear
11:35 PM 75.2 °F - 61.5 °F 62% 30.07 in 10.0 mi South 12.7 mph - N/A   Scattered Clouds
11:55 PM 75.2 °F - 61.7 °F 63% 30.07 in 10.0 mi South 11.5 mph - N/A   Scattered Clouds